Snowfall_Accumulation
1.7 1.9 2.1 1.7 1.7 2.0 2.3 3.5 6.8 5.8 1.9 0.6 0.1 0.0 0.1 0.1 0.1 0.1 0.1 0.1 0.2 0.4 0.4 0.4 0.3 0.3 0.3 0.3 0.3 0.2 0.3 0.1 0.1 0.0 0.0 0.0 0.0 0.0
1.8 2.0 2.2 2.1 1.9 1.9 2.2 2.6 3.9 6.3 4.8 1.0 0.6 0.1 0.1 0.1 0.1 0.1 0.1 0.1 0.2 0.3 0.3 0.2 0.3 0.2 0.2 0.3 0.2 0.3 0.3 0.2 0.1 0.0 0.0 0.0 0.0 0.0
1.7 2.0 2.3 2.1 2.1 1.7 2.0 2.5 2.7 3.9 5.5 1.2 0.5 0.2 0.1 0.1 0.1 0.1 0.1 0.1 0.1 0.1 0.2 0.3 0.3 0.3 0.2 0.2 0.2 0.2 0.2 0.2 0.1 0.1 0.0 0.0 0.0 0.0
2.4 2.4 2.3 2.1 2.3 2.4 2.5 2.7 2.8 2.8 4.6 3.8 1.1 0.5 0.3 0.3 0.2 0.2 0.1 0.1 0.1 0.1 0.2 0.3 0.3 0.3 0.2 0.2 0.2 0.2 0.2 0.2 0.2 0.1 0.1 0.0 0.0 0.0
3.5 4.0 3.9 3.1 3.4 3.4 3.4 3.6 3.0 2.3 3.0 3.8 2.5 1.2 1.3 0.4 0.6 0.5 0.4 0.1 0.1 0.1 0.2 0.2 0.2 0.2 0.2 0.3 0.2 0.3 0.3 0.2 0.2 0.2 0.2 0.1 0.1 0.1
7.3 5.7 6.5 7.1 5.7 4.5 4.5 3.9 3.4 3.6 3.4 4.0 3.4 2.4 1.7 1.3 1.3 1.3 1.2 0.6 0.7 0.4 0.2 0.2 0.2 0.2 0.3 0.3 0.4 0.4 0.3 0.4 0.3 0.3 0.3 0.3 0.3 0.3
6.2 6.2 6.3 5.6 4.0 5.6 5.5 5.5 5.2 5.7 5.5 5.6 5.0 3.8 2.9 3.0 3.5 2.2 2.5 1.3 0.9 0.9 0.8 0.5 0.4 0.3 0.3 0.3 0.3 0.3 0.4 0.4 0.4 0.4 0.4 0.3 0.3 0.3
4.9 4.5 4.7 5.7 6.5 4.3 4.3 4.7 5.5 8.2 9.2 8.4 7.0 6.0 4.5 3.6 3.5 4.0 4.2 5.0 5.2 1.4 1.4 1.4 1.1 0.9 0.5 0.2 0.3 0.3 0.5 0.6 0.5 0.5 0.5 0.5 0.5 0.5
3.1 3.2 3.1 3.3 4.7 5.2 5.8 5.2 5.9 5.5 7.2 9.6 10.1 7.0 4.8 4.2 5.3 6.2 5.8 6.8 6.5 3.5 2.6 3.3 1.5 1.7 0.8 0.5 0.5 0.5 0.5 0.7 0.6 0.7 0.7 0.7 0.7 0.7
2.4 2.3 2.4 2.7 3.8 4.8 5.9 6.0 5.8 7.0 8.7 9.7 11.1 9.0 5.6 4.6 5.9 7.8 8.1 8.0 5.8 3.4 2.8 6.3 3.0 2.1 1.4 0.9 0.5 0.6 1.0 1.0 0.7 0.7 0.7 0.9 0.8 0.9
2.1 2.2 2.3 2.3 3.4 4.7 5.4 5.4 4.6 5.1 5.6 7.0 7.8 7.5 6.2 4.1 4.6 8.2 10.8 12.2 10.3 5.3 3.1 6.5 4.3 3.7 2.3 1.4 0.6 0.6 0.8 0.9 0.9 1.0 0.7 1.0 1.1 1.2
1.9 1.7 2.5 3.1 3.7 3.8 4.7 5.5 6.2 4.8 4.2 4.4 4.8 5.0 5.4 4.5 3.4 6.9 9.5 13.1 12.4 10.2 4.9 6.5 5.7 6.5 8.1 3.9 0.9 0.6 0.6 0.5 0.5 0.7 0.9 0.8 1.0 1.1
3.2 2.1 2.3 3.0 3.0 3.1 3.5 5.0 6.7 5.1 4.1 4.6 5.0 5.2 5.5 6.0 5.2 5.4 7.1 10.5 13.1 12.1 7.5 9.3 10.3 8.7 11.5 9.2 2.9 1.1 1.2 0.7 0.6 0.6 0.6 0.7 0.9 1.2
4.3 2.4 2.1 2.5 2.5 2.6 3.0 2.9 3.3 3.8 4.9 5.4 5.4 5.3 6.0 7.0 7.3 8.0 8.5 8.6 8.7 9.2 7.0 8.4 14.4 12.6 14.4 12.8 8.0 4.3 2.8 1.4 1.3 1.5 0.9 0.9 1.1 1.0
4.3 3.3 2.4 2.4 2.6 2.6 2.1 3.1 3.6 4.4 5.8 6.5 6.2 5.6 5.7 6.4 6.6 7.7 7.7 7.9 7.7 6.3 6.4 5.6 9.7 11.4 13.3 13.9 9.4 6.0 4.8 2.7 1.5 1.9 2.0 1.8 1.6 1.6
4.2 3.2 2.5 2.5 2.8 2.7 2.9 3.2 3.3 4.4 5.9 6.9 6.4 5.5 4.7 5.7 7.1 7.5 9.1 8.6 9.6 8.6 7.1 4.7 6.0 9.3 12.4 9.7 8.2 7.3 5.5 5.4 3.1 2.2 2.3 1.9 1.5 1.4
5.3 5.0 4.3 4.2 4.5 4.1 3.6 3.8 3.7 4.3 5.1 5.6 5.9 6.1 5.8 6.4 7.1 7.5 9.4 10.2 11.2 10.9 9.0 6.2 5.9 6.1 7.8 8.6 10.3 7.4 5.7 4.9 3.3 2.7 3.0 3.2 2.3 1.8
5.9 7.1 5.5 4.9 5.3 5.3 5.3 5.0 4.5 4.4 4.7 5.0 5.6 5.8 6.5 7.2 7.8 7.8 9.0 11.1 12.1 11.4 11.7 10.2 9.7 10.6 10.4 10.0 8.2 7.1 5.5 4.7 3.3 2.8 3.0 4.1 3.7 2.1
5.8 5.8 5.3 5.7 5.9 6.1 5.6 5.6 5.1 4.1 4.2 5.0 5.6 5.9 6.4 7.1 7.7 8.6 9.2 10.4 11.4 11.5 11.8 11.6 12.4 14.0 15.4 16.5 13.1 6.8 6.9 5.4 3.8 3.1 2.9 4.0 5.1 3.2
5.0 6.0 6.0 5.9 6.2 6.3 5.9 5.6 4.7 4.2 4.4 5.0 5.4 5.7 6.4 7.2 7.9 8.1 8.9 10.7 11.4 11.9 12.3 11.5 12.9 15.9 18.2 17.5 15.9 12.3 6.2 6.1 5.8 5.1 3.3 2.6 2.4 1.6
6.1 5.9 6.1 5.9 5.8 5.8 5.7 5.7 5.5 5.3 4.6 5.0 5.4 5.8 5.9 7.2 7.7 7.9 8.6 9.5 11.3 12.7 13.2 12.9 13.0 14.2 14.3 13.0 14.1 12.6 10.2 6.2 5.4 6.8 6.5 6.7 6.1 4.7
6.9 6.3 5.8 5.5 5.8 5.8 5.8 5.8 5.8 5.4 4.8 5.0 5.3 5.4 6.1 6.7 7.4 7.8 8.5 9.8 10.3 10.9 12.0 11.7 11.5 13.0 14.5 15.2 14.4 11.5 10.9 8.3 6.8 4.7 4.5 5.9 11.5 14.8
7.7 6.8 5.9 5.8 5.6 5.9 6.2 6.1 6.0 5.6 5.6 5.2 5.2 5.7 5.9 6.7 6.6 7.2 7.7 8.4 9.0 9.8 10.9 12.0 12.0 13.5 14.3 14.5 14.5 12.6 11.1 9.5 8.0 7.1 6.7 3.0 2.9 3.5